GFSSW_2pvu_pres_285.txt.gz
Presure
159 139 153 174 191 182 159 181 182 183 139 128 161 164 171 153 147 125 192 203 168 134 181 200 197 197 197 191 205 197 200 183 165 142 174 187 168 213 185 203 125 165 168 97 98
125 170 165 133 190 138 152 170 178 185 141 143 135 170 170 177 201 159 128 220 208 210 211 205 171 204 191 188 200 212 192 192 184 190 184 178 182 170 218 230 194 102 131 93 92
167 163 183 194 184 190 185 179 151 201 185 110 156 135 165 207 183 135 129 195 176 206 206 207 195 198 214 201 191 199 177 192 188 189 201 177 181 177 210 214 224 200 180 162 177
178 129 181 173 147 157 176 179 178 169 161 110 175 108 124 183 157 214 205 187 200 195 143 161 194 198 194 203 208 197 200 203 193 191 193 193 179 182 172 182 203 225 205 251 141
130 143 170 130 175 175 194 149 178 157 165 224 207 213 203 202 212 133 209 208 199 197 203 207 200 204 204 202 197 204 214 203 202 207 199 191 195 176 186 165 204 216 205 189 243
155 135 131 189 185 179 180 152 172 182 190 172 189 180 200 215 201 205 205 201 193 197 190 195 200 204 193 191 199 227 223 260 227 221 180 197 198 203 189 182 167 162 212 224 188
125 188 186 136 113 190 176 187 168 175 172 205 197 200 192 199 196 206 199 194 190 202 199 200 214 215 216 235 228 217 242 229 246 214 237 219 240 204 141 248 180 171 166 213 87
126 184 191 170 164 177 163 99 178 153 205 179 210 191 193 196 192 185 176 192 184 194 198 204 223 234 227 219 241 249 232 235 229 244 226 230 244 168 182 195 254 176 175 169 209
145 161 198 170 181 154 122 178 181 223 217 213 207 217 210 186 193 196 197 193 200 209 220 228 215 208 223 237 233 227 236 228 221 234 223 216 240 130 227 193 199 248 182 178 170
143 186 158 182 201 185 204 217 218 210 194 184 202 210 203 198 193 192 202 203 209 209 212 222 232 233 224 215 220 224 235 240 244 240 239 244 262 218 228 226 196 200 206 184 180
120 170 148 141 194 210 196 202 187 202 211 211 208 195 194 190 200 201 195 222 202 207 216 229 240 237 208 216 225 224 236 243 245 249 257 296 262 272 249 235 202 198 207 222 176
195 162 170 151 217 204 168 206 190 208 207 202 197 192 194 199 207 209 180 192 208 220 235 240 239 225 224 219 223 232 247 257 269 294 311 333 327 329 244 251 238 197 201 230 217
204 164 220 209 183 179 215 218 204 201 201 196 198 202 203 204 208 208 207 213 212 229 239 224 219 211 221 230 249 265 323 341 369 398 417 413 420 424 123 273 264 233 196 92 248
116 125 149 183 196 222 221 201 192 202 208 215 204 219 199 199 199 197 200 216 232 233 225 227 229 242 254 279 330 340 370 417 394 395 432 393 408 399 387 183 287 263 230 197 247
158 206 193 202 173 180 211 211 210 212 216 218 212 190 192 190 197 228 241 233 229 236 232 242 248 262 308 332 378 413 408 386 379 368 377 382 377 466 425 439 316 254 244 203 203
194 204 210 214 217 198 214 210 207 220 222 199 193 209 212 212 234 235 234 226 231 237 250 269 307 321 357 433 431 423 419 416 401 398 360 371 377 274 414 364 311 286 245 250 191
215 211 202 183 226 192 223 227 216 202 190 192 199 219 222 235 242 242 238 234 238 253 277 332 356 389 421 415 408 408 423 409 388 394 424 388 335 366 343 358 410 369 282 247 248
189 211 167 187 223 213 195 201 206 201 199 212 243 244 239 230 239 245 234 238 255 281 307 345 428 400 398 392 403 394 466 474 489 388 393 384 377 358 357 345 354 389 281 255 249
196 142 216 214 202 204 203 201 200 210 234 239 238 234 227 241 234 230 245 255 284 326 407 413 396 386 375 411 464 461 443 467 473 480 375 370 351 342 319 336 333 374 282 276 252
224 212 188 209 213 203 193 194 203 230 239 239 230 238 241 242 233 251 261 305 398 411 398 385 367 351 439 439 440 457 455 457 461 463 393 358 377 337 330 325 318 357 347 274 247
184 203 205 214 211 200 202 191 230 225 236 235 229 229 235 239 246 259 293 405 400 388 369 350 391 416 438 437 445 433 438 444 478 440 374 346 355 371 330 317 308 332 358 273 246
207 210 212 206 202 201 202 199 246 239 239 231 228 241 245 247 259 300 402 393 382 355 333 362 408 407 425 421 426 423 422 422 472 416 408 340 344 362 354 326 295 312 351 286 269
216 210 205 196 187 182 215 241 240 233 237 230 237 241 247 262 347 408 327 371 344 331 401 394 399 395 416 410 418 411 406 410 450 422 402 339 337 346 339 353 335 318 347 312 261
212 185 201 198 189 210 223 239 240 234 232 238 244 251 272 409 396 321 362 338 332 389 399 403 390 409 408 400 389 395 387 402 405 424 412 343 321 333 345 340 332 295 322 321 259
203 201 195 191 209 222 245 243 245 240 233 245 265 305 397 384 333 356 339 330 394 394 383 379 409 401 395 388 378 378 381 383 396 434 391 347 323 322 338 328 336 332 339 314 276
204 158 182 206 211 249 247 235 231 229 253 279 323 394 376 367 356 331 329 403 390 386 369 385 384 384 378 376 366 365 368 374 384 435 375 366 322 309 329 328 329 337 330 312 303
219 207 211 234 227 242 230 234 250 258 308 398 389 374 364 342 331 331 404 391 381 368 360 385 376 372 362 362 358 356 360 364 396 448 403 404 323 307 317 327 320 323 320 323 302

GFSSW_2pvu_pres_291.txt.gz
Presure
138 147 191 131 178 147 170 125 154 178 142 172 137 152 205 210 201 195 147 143 121 154 205 157 158 159 184 231 219 192 192 187 190 193 201 211 142 189 164 170 161 95 90 93 92
124 106 178 162 145 183 168 148 166 179 122 125 143 177 153 195 181 147 154 153 106 201 226 193 165 203 209 181 208 233 225 189 193 189 193 199 208 183 184 159 149 199 140 179 159
102 141 121 132 123 130 135 106 166 187 187 198 191 169 185 209 155 202 191 183 160 197 103 108 111 193 206 205 206 218 225 226 187 205 189 193 195 206 196 180 156 171 171 151 177
169 134 162 171 133 140 118 157 196 129 194 209 205 202 142 166 183 190 202 183 192 190 212 202 110 181 205 209 219 212 186 205 216 226 217 196 188 195 199 199 182 173 203 164 177
137 124 143 141 169 131 194 167 188 202 127 119 181 171 178 193 182 177 173 200 221 217 221 218 170 214 156 225 221 224 195 182 165 205 213 219 210 185 191 190 198 187 183 162 177
174 165 139 181 140 161 120 157 158 185 164 148 154 148 234 158 137 204 231 225 217 216 228 224 221 221 215 211 205 210 203 205 204 202 202 207 208 208 179 184 200 203 208 184 174
181 180 166 186 194 144 129 214 157 169 185 200 148 170 193 226 179 224 202 210 204 202 195 192 201 202 201 206 216 212 206 209 198 202 203 208 205 200 199 210 189 200 201 203 187
168 156 142 145 163 166 138 138 154 182 175 180 194 203 199 140 123 170 187 212 229 224 219 213 218 215 212 213 213 213 213 202 199 197 210 206 206 192 153 109 214 196 191 200 199
168 198 130 167 112 130 131 129 194 198 199 178 189 224 151 199 226 224 216 193 218 206 206 207 205 208 210 213 211 210 208 203 200 203 205 204 203 192 191 208 151 210 217 192 203
143 125 166 143 159 115 205 174 187 159 139 168 155 157 217 223 220 223 231 214 215 216 218 217 218 221 215 217 220 216 215 217 217 202 218 225 231 181 211 203 222 60 204 211 212
196 181 123 211 186 185 161 219 164 188 197 152 185 241 243 226 204 219 218 213 206 207 202 196 197 202 201 203 198 197 196 199 191 189 208 210 221 215 210 209 211 221 229 169 230
184 141 140 180 158 145 178 174 206 133 221 197 200 234 224 221 222 217 215 210 210 198 200 199 198 195 196 207 225 228 214 233 219 216 224 230 224 201 189 205 216 224 237 249 243
150 117 206 148 171 184 178 170 179 190 181 186 198 212 224 218 219 219 201 203 199 193 186 188 190 210 219 231 255 254 253 252 263 250 250 260 266 234 191 262 253 227 231 253 243
206 132 177 204 171 198 149 155 204 194 207 212 191 161 216 211 205 192 191 198 204 190 186 198 214 210 223 258 246 246 249 249 238 232 239 229 253 246 244 251 250 256 242 247 253
173 160 204 204 115 110 176 192 148 189 193 217 200 224 195 211 204 207 204 205 219 225 192 197 209 218 235 246 243 238 241 242 241 237 241 245 245 261 126 260 253 270 263 258 263
197 179 174 148 114 198 185 193 201 174 192 196 201 219 200 212 209 212 207 224 207 202 203 219 246 251 248 242 241 241 244 243 241 272 287 286 207 408 501 479 489 349 345 274 294
158 170 177 176 184 185 192 206 168 164 195 215 212 186 221 216 206 196 196 208 241 258 253 249 241 239 239 242 245 257 281 303 306 322 398 457 474 455 487 456 451 504 461 461 476
165 114 184 190 138 201 210 187 188 157 194 208 210 224 217 195 202 199 205 233 254 251 232 242 249 255 266 281 281 310 420 407 419 422 418 407 402 412 397 393 404 421 422 440 435
173 186 181 182 192 187 196 182 189 195 195 224 212 231 210 228 198 217 240 241 251 243 248 258 267 280 311 334 433 414 410 411 407 395 390 373 362 384 483 443 466 457 416 482 418
163 151 165 179 194 192 178 192 189 193 234 195 237 220 219 207 220 243 247 262 258 253 263 284 327 348 417 417 407 391 384 378 370 366 359 411 430 445 465 462 458 470 447 404 408
183 194 177 185 195 200 199 202 192 194 236 227 205 224 208 228 246 262 257 260 266 289 309 376 430 407 404 393 379 368 360 348 346 431 407 424 474 438 435 463 423 330 151 287 378
174 182 180 189 190 199 195 212 192 195 240 233 226 224 238 258 251 254 268 292 312 415 417 411 398 386 370 363 347 336 343 402 415 412 406 432 432 450 428 442 410 424 413 380 382
185 177 189 191 201 199 205 196 214 218 219 212 246 258 251 254 271 302 418 433 417 406 393 379 371 355 342 329 344 397 395 403 414 417 419 418 425 431 423 423 398 405 383 375 372
171 180 203 170 193 190 207 217 222 201 240 249 251 252 274 294 433 403 415 408 398 367 352 348 334 327 329 377 400 401 382 390 400 402 405 409 407 422 442 415 378 382 365 362 346
183 189 181 198 196 192 207 231 209 237 249 254 263 363 412 435 415 380 361 339 331 354 334 328 326 398 395 389 386 378 371 386 386 386 387 393 392 406 435 398 369 364 348 366 341
188 170 180 189 211 197 226 203 242 242 262 264 343 381 373 355 343 333 322 339 340 329 321 382 401 390 385 378 374 365 371 377 373 372 375 379 380 400 436 374 392 343 342 320 307
172 194 195 202 209 222 204 246 244 267 264 295 384 356 333 333 334 345 348 326 321 351 416 402 388 378 363 365 360 368 367 367 362 363 364 370 374 394 421 368 371 321 307 303 295

GFSSW_2pvu_pres_294.txt.gz
Presure
131 125 133 124 112 134 129 117 131 129 123 122 191 158 180 200 159 151 199 211 209 193 187 166 138 165 163 159 175 170 174 181 188 203 200 201 207 175 180 149 183 93 152 171 99
144 136 137 98 164 109 170 123 121 178 178 110 138 200 180 194 172 150 212 181 151 188 209 148 151 159 160 186 175 160 173 168 205 221 196 196 203 205 184 182 171 190 165 146 87
130 123 154 150 151 151 129 144 169 182 196 211 193 153 182 188 175 125 181 188 164 202 183 192 182 195 130 195 204 195 193 213 164 223 229 190 199 196 204 193 179 184 177 140 110
122 122 125 171 160 116 172 160 152 208 119 125 144 201 140 189 204 160 208 195 154 210 168 231 212 213 218 214 122 110 110 149 191 214 181 228 206 199 195 196 211 180 194 134 187
159 121 123 167 139 193 173 135 124 134 159 152 196 167 197 176 185 133 127 179 212 188 225 176 215 212 234 221 224 226 162 153 172 203 214 217 223 221 180 198 202 206 179 182 218
145 127 120 123 184 135 190 164 149 149 109 169 127 129 174 203 137 197 199 192 141 192 148 161 165 219 226 219 222 229 230 227 217 183 224 221 213 188 142 191 199 194 201 198 177
174 124 176 186 183 163 141 141 173 182 206 184 190 203 122 121 205 205 164 179 195 226 225 117 202 207 209 215 206 208 197 211 222 220 210 223 218 195 186 139 218 197 193 195 204
135 150 148 181 114 203 152 190 190 214 149 108 137 174 208 162 179 153 254 178 242 119 206 225 223 202 221 222 207 178 220 219 212 204 208 216 210 203 201 208 213 214 212 200 189
169 167 147 167 203 157 160 192 155 159 163 190 171 173 160 169 211 172 194 242 215 168 237 228 223 236 222 221 218 198 196 202 211 218 217 215 213 203 207 205 207 207 168 199 215
120 134 135 179 150 155 135 126 164 216 140 212 172 171 154 172 166 191 210 211 214 193 217 226 228 222 210 226 216 218 222 216 209 201 221 215 223 215 207 204 209 205 206 165 211
135 155 128 179 183 158 137 170 129 105 166 170 111 195 207 135 207 206 194 233 207 209 205 190 215 218 205 206 213 215 212 209 203 205 216 218 226 217 209 211 208 210 213 207 206
155 152 167 166 133 171 179 209 179 199 181 191 156 185 177 204 209 172 196 221 221 177 222 228 219 218 211 210 208 209 209 197 195 197 212 217 212 209 220 221 210 211 210 211 211
184 161 154 129 153 148 186 172 173 181 170 166 173 211 189 194 197 198 195 194 223 209 225 218 217 201 206 207 206 211 220 231 192 190 209 205 194 218 214 217 222 225 224 207 207
169 123 151 175 117 196 184 201 198 186 178 180 173 197 211 200 210 189 203 203 229 215 213 238 213 209 211 213 213 224 210 221 223 219 200 182 237 241 204 278 271 214 218 218 224
183 121 192 118 164 170 181 198 171 203 152 128 191 211 201 201 196 205 192 213 215 235 203 220 210 208 208 228 222 217 219 230 259 267 271 251 258 278 273 271 273 268 275 239 213
154 158 125 173 163 183 175 163 173 172 172 196 214 214 198 197 205 200 209 223 221 205 209 199 216 219 218 214 220 255 267 269 260 250 256 242 253 268 266 273 266 260 261 266 269
153 191 161 162 149 154 151 176 146 179 170 195 196 204 192 211 203 200 228 225 213 225 228 229 250 256 256 250 247 245 253 265 264 265 267 287 298 313 251 316 267 265 268 273 274
165 185 159 164 139 171 164 182 176 189 184 204 179 206 207 210 205 236 207 213 233 234 252 255 256 266 289 280 282 304 295 292 310 311 313 314 347 432 451 423 388 469 465 441 442
169 162 173 174 178 170 161 160 188 196 179 202 203 196 206 208 220 207 234 234 236 256 258 258 289 309 319 313 321 331 329 348 359 373 441 429 427 419 417 403 402 409 416 420 417
168 161 173 172 173 175 187 180 188 184 198 192 197 202 217 211 213 244 246 250 263 266 275 287 292 344 349 370 403 411 418 411 407 408 406 408 394 393 389 385 381 378 387 390 390
159 172 178 176 171 175 186 195 182 199 178 191 204 218 211 216 218 243 259 263 276 333 375 400 434 428 436 421 410 402 393 397 391 375 367 368 359 345 347 415 431 431 480 474 480
184 176 176 164 162 192 200 184 185 184 193 210 212 214 213 216 247 265 268 297 377 380 379 432 421 418 404 394 374 351 350 341 343 338 340 344 420 420 424 426 447 425 458 437 465
171 180 189 196 189 196 187 151 180 193 209 222 207 249 249 236 263 304 381 378 378 371 338 325 329 331 332 340 344 351 333 330 330 350 402 404 405 398 418 420 425 432 461 439 430
179 179 192 178 196 162 171 210 187 213 219 202 213 247 252 273 388 376 367 348 332 328 337 345 341 342 349 334 327 325 332 382 388 390 388 387 391 404 411 405 415 428 444 437 401
167 190 183 190 165 196 214 192 203 205 206 220 220 262 281 390 350 353 332 324 334 329 341 345 344 331 323 328 392 401 399 390 382 377 376 385 389 387 391 395 410 418 420 400 387
193 193 147 175 193 187 210 210 213 207 217 230 269 321 260 363 345 341 335 340 345 344 337 337 335 341 388 393 397 392 381 370 367 365 365 378 380 375 374 386 403 407 444 375 376
193 174 188 191 197 200 199 218 235 241 235 271 300 290 353 353 355 357 366 355 342 341 343 363 372 396 412 388 385 384 361 362 362 359 365 366 367 367 366 375 388 414 409 363 354

GFSSW_2pvu_pres_300.txt.gz
Presure
130 116 138 133 141 131 102 115 133 107 116 172 186 145 205 154 207 192 205 120 160 151 161 213 142 170 208 198 197 213 205 206 177 188 195 207 193 202 203 182 180 116 119 93 138
131 113 94 124 132 148 134 115 126 116 163 152 124 159 175 145 212 215 105 139 206 189 159 196 190 169 208 186 177 200 189 196 193 162 180 196 202 188 200 203 190 180 211 186 118
132 95 124 134 133 128 125 115 138 106 183 123 202 197 210 163 112 131 179 205 144 186 109 187 134 175 199 176 189 177 229 230 206 176 178 184 179 196 192 206 202 209 184 192 191
129 123 123 120 132 142 123 156 134 118 131 107 188 113 219 143 166 157 147 141 180 117 113 113 136 173 127 190 174 176 201 186 171 250 203 169 176 168 180 197 195 200 204 182 180
119 119 136 133 128 133 176 173 170 126 106 144 108 168 152 199 195 131 177 183 165 111 167 169 179 133 180 184 173 186 175 196 216 233 228 186 222 169 160 163 180 187 198 201 192
115 127 116 111 170 122 148 158 136 176 118 195 193 144 138 187 185 149 174 133 125 187 180 180 163 157 167 178 180 137 174 166 160 185 238 232 225 240 217 214 166 162 185 186 199
160 172 179 119 167 169 119 159 181 122 186 196 187 130 167 143 153 176 180 121 184 169 114 116 171 124 112 175 192 153 180 159 160 162 243 193 163 234 238 221 196 198 193 164 187
173 182 156 158 166 165 152 155 124 129 192 195 182 181 149 170 131 170 176 187 179 120 176 142 172 177 167 170 121 169 188 161 206 183 219 244 235 232 219 228 229 216 228 218 216
172 152 129 104 154 159 162 134 187 183 188 193 183 172 202 158 191 148 181 150 179 146 172 168 163 109 106 186 210 212 232 197 214 178 181 249 157 241 225 224 217 186 227 222 222
121 167 144 175 169 131 174 179 169 130 161 184 193 181 190 192 193 185 126 111 128 163 157 153 148 163 172 183 214 230 225 235 226 181 199 200 235 209 173 173 238 219 215 222 230
123 122 156 172 110 151 178 182 190 178 181 185 169 171 193 175 177 182 179 156 176 180 163 179 200 174 176 187 189 208 216 226 225 221 222 193 208 210 214 239 168 240 209 229 218
170 173 102 103 152 144 183 188 155 187 178 180 202 205 141 128 185 175 163 178 184 175 170 178 179 196 170 199 215 217 224 219 218 219 220 227 202 213 201 231 231 232 233 227 215
143 130 164 169 178 184 183 169 132 201 183 185 191 189 181 179 175 171 167 163 168 173 179 178 191 199 202 210 195 216 218 208 224 218 228 237 239 216 223 198 228 236 229 184 233
150 96 141 164 195 191 188 187 171 173 140 182 180 170 163 153 167 146 166 169 175 198 189 199 198 202 203 198 206 208 209 222 220 240 235 238 247 242 254 241 209 201 236 232 231
95 172 175 190 179 207 192 177 161 163 183 171 172 204 165 175 177 174 180 156 162 199 192 200 194 197 205 207 211 228 242 254 261 246 256 267 277 289 260 257 253 246 251 229 236
169 163 188 202 189 198 177 172 166 177 174 182 178 161 147 180 171 181 144 155 199 187 196 199 208 209 215 211 214 256 260 244 246 260 266 278 274 291 300 313 277 259 262 257 252
186 183 193 179 167 176 155 165 184 184 186 174 169 151 150 151 157 173 154 183 201 195 197 203 206 211 220 219 260 255 253 263 271 327 334 356 347 333 310 271 317 312 304 275 259
163 185 174 162 174 180 156 182 186 171 167 160 172 173 173 168 182 198 200 201 189 196 163 207 215 217 230 231 264 262 272 368 374 379 375 370 377 370 355 343 330 322 319 315 305
196 179 165 159 141 169 177 177 173 183 181 174 179 158 163 195 194 198 202 187 198 193 209 218 220 229 234 241 270 333 393 386 387 383 392 430 469 458 450 451 61 112 390 354 333
182 183 164 174 171 153 174 172 176 153 182 172 176 174 166 199 199 197 195 182 205 208 217 217 229 253 279 280 398 393 380 389 362 357 358 361 363 369 360 366 402 412 425 431 437
183 162 191 177 165 147 184 171 169 179 185 187 170 157 198 193 201 194 195 208 209 218 222 227 239 269 360 397 375 370 366 361 350 348 347 348 344 334 326 324 326 332 340 350 360
159 187 180 127 175 179 177 214 181 176 163 175 168 203 188 200 194 203 205 208 219 225 237 243 270 394 378 373 366 362 354 349 348 347 350 350 367 350 346 350 353 355 359 365 367
164 195 134 174 172 194 176 169 165 194 166 155 191 192 195 193 209 209 210 215 219 235 281 272 380 385 384 379 368 360 357 356 354 357 358 352 359 348 352 352 355 353 352 354 358
175 161 168 156 174 180 197 195 164 157 158 185 206 194 182 195 208 217 210 221 238 249 328 391 392 382 377 372 369 366 363 358 357 356 350 354 377 399 408 409 409 411 413 412 415
196 159 148 169 172 176 161 171 162 173 199 200 198 194 205 207 210 219 224 237 265 353 400 390 389 395 385 375 370 370 373 371 380 388 388 393 398 395 394 392 392 391 388 393 398
198 177 168 173 173 201 181 210 176 204 201 197 208 206 212 213 220 226 239 279 346 410 402 391 384 381 379 383 382 388 398 382 390 393 403 400 386 378 375 370 374 378 375 379 384
173 174 166 172 154 165 173 191 195 204 192 208 206 206 215 220 229 243 258 430 419 413 410 403 397 391 391 384 383 400 402 391 396 383 378 376 367 363 362 363 361 359 368 369 368